Regional Weather Roundup
Issued by NWS Kansas City/Pleasant Hill, MO

Home | Current Version | Previous Version | Graphics & Text | Print | Product List | Glossary Off
Versions: 1 2 3 4 5 6 7 8 9 10 11 12 13 14 15 16 17 18 19 20 21 22 23 24 25 26 27 28 29 30 31 32 33 34 35 36 37 38 39 40 41 42 43 44 45 46 47 48 49 50

000
ASUS43 KEAX 040410
RWREAX

WEATHER ROUNDUP FOR EASTERN KANSAS AND NORTHWEST MISSOURI
NATIONAL WEATHER SERVICE KANSAS CITY/PLEASANT HILL MO
1100 PM CDT THU SEP 03 2015

KSZ040-057-103>105-MOZ028-029-037-043-040500-
...KANSAS CITY METROPOLITAN AREA...

CITY           SKY/WX    TMP DP  RH WIND       PRES   REMARKS
K.C. INTL      CLEAR     74  67  78 S9        29.92R
K.C. DOWNTOWN  PTCLDY    80  68  66 S7        29.91R
LEES SUMMIT    CLEAR     78  67  68 S7        29.94R
OLATHE - IXD   PTCLDY    74  68  81 S8        29.93S
OLATHE - OJC   PTCLDY    74  68  81 S5        29.92S
LAWRENCE       MOCLDY    73  68  84 SE5       29.91S

$$

MOZ001>008-011>017-020>025-030>033-038>040-044>046-053-054-040500-
...NORTHERN AND CENTRAL MISSOURI...

CITY           SKY/WX    TMP DP  RH WIND       PRES   REMARKS
ST. JOSEPH     CLEAR     75  69  81 S7        29.90R
MOSBY          CLEAR     73  68  83 CALM      29.92R
WARRENSBURG    CLEAR     75  68  78 S3        29.93S
WHITEMAN AFB   CLEAR     76  69  77 S6        29.93R
CLINTON        CLEAR     77  72  83 CALM      29.94S
SEDALIA        CLEAR     75  68  78 S6        29.96R
WARSAW         NOT AVBL
CHILLICOTHE      N/A     75  70  84 CALM      29.93R
KIRKSVILLE     CLEAR     74  67  78 S5        29.95R

$$

MOZ041-047>049-056>058-063>065-088>090-097-040500-
...EASTERN AND SOUTHERN MISSOURI...

CITY           SKY/WX    TMP DP  RH WIND       PRES   REMARKS
ST. LOUIS INTL PTCLDY    83  68  60 CALM      29.96S
SPIRIT OF STL  CLEAR     73  71  93 CALM      29.94S
COLUMBIA       CLEAR     76  69  79 S7        29.96R
JEFFERSON CITY CLEAR     76  70  82 CALM      29.94R
ROLLA          CLEAR     74  67  78 S8        29.97R
OSAGE BEACH    CLEAR     75  66  73 SE3       29.97R
SPRINGFIELD    CLEAR     76  69  79 SE5       29.97R
BRANSON        CLEAR     73  68  83 CALM      29.99S
JOPLIN         PTCLDY    75  69  81 SE3       29.95R
WEST PLAINS    CLEAR     72  68  87 CALM      30.01S

$$

IAZ060-094-KSZ022-034>040-054-083-096-NEZ052-066-093-040500-
...KANSAS...SOUTHEAST NEBRASKA AND IOWA...

CITY           SKY/WX    TMP DP  RH WIND       PRES   REMARKS
TOPEKA         PTCLDY    78  68  71 S7        29.90R
MANHATTAN      PTCLDY    78  68  71 S6        29.87R
EMPORIA        PTCLDY    76  68  76 S12       29.90S
CHANUTE        PTCLDY    75  69  81 SE7       29.92S
WICHITA        CLOUDY    79  66  64 S13       29.88R
OMAHA          MOCLDY    81  69  67 S14       29.84S
LINCOLN        PTCLDY    81  67  62 S13       29.84R
FALLS CITY     CLEAR     77  67  71 S8        29.87S
LAMONI         CLEAR     76  69  79 S7        29.92R
DES MOINES     PTCLDY    79  70  74 SE7       29.89S

$$



USA.gov is the U.S. government's official web portal to all federal, state and local government web resources and services.